• In Österreich
  • Länderverzeichnis
  • Für 7 Tage
  • Wassertemperatur
  • Satellitenkarten
  • Wetterkarte
  • News
  • Widgets
  • user-avatar
    Anmelden

    Stündliche Wetter Aschtarak

    Heute, 15 November, Donnerstag

    Zeit Temperatur Niederschläge Wind Luftdruck Luftfeuchtigkeit
    00:00 +4°C° 0.4 mm 3 m/S 655 mmHg 77%
    01:00 +4°C° 0.4 mm 3 m/S 654 mmHg 77%
    02:00 +4°C° 0.4 mm 3 m/S 654 mmHg 77%
    03:00 +4°C° 0.4 mm 3 m/S 654 mmHg 78%
    04:00 +4°C° 0.5 mm 3 m/S 654 mmHg 78%
    05:00 +4°C° 0.5 mm 3 m/S 654 mmHg 78%
    06:00 +4°C° 0.5 mm 3 m/S 654 mmHg 78%
    07:00 +4°C° 0.6 mm 3 m/S 655 mmHg 78%
    08:00 +5°C° 0.6 mm 3 m/S 655 mmHg 77%
    09:00 +5°C° 0.6 mm 3 m/S 655 mmHg 77%
    10:00 +7°C° 0.6 mm 3 m/S 655 mmHg 76%
    11:00 +7°C° 0.6 mm 3 m/S 655 mmHg 76%
    12:00 +8°C° 0.6 mm 3 m/S 656 mmHg 76%
    13:00 +8°C° 0.5 mm 2 m/S 656 mmHg 76%
    14:00 +8°C° 0.5 mm 2 m/S 656 mmHg 76%
    15:00 +8°C° 0.5 mm 2 m/S 656 mmHg 77%
    16:00 +7°C° 0.3 mm 2 m/S 656 mmHg 78%
    17:00 +7°C° 0.3 mm 2 m/S 656 mmHg 79%
    18:00 +6°C° 0.3 mm 2 m/S 656 mmHg 80%
    19:00 +6°C° 0.4 mm 2 m/S 656 mmHg 80%
    20:00 +6°C° 0.4 mm 2 m/S 656 mmHg 80%
    21:00 +6°C° 0.4 mm 2 m/S 657 mmHg 79%
    22:00 +6°C° 0.4 mm 2 m/S 657 mmHg 79%
    23:00 +6°C° 0.4 mm 2 m/S 657 mmHg 80%

    Morgen, 16 November, Freitag

    Zeit Temperatur Niederschläge Wind Luftdruck Luftfeuchtigkeit
    00:00 +6°C° 0.4 mm 2 m/S 657 mmHg 80%
    01:00 +6°C° 0.5 mm 2 m/S 656 mmHg 80%
    02:00 +6°C° 0.5 mm 2 m/S 656 mmHg 80%
    03:00 +6°C° 0.5 mm 2 m/S 656 mmHg 81%
    04:00 +6°C° 0.4 mm 2 m/S 656 mmHg 80%
    05:00 +6°C° 0.4 mm 2 m/S 656 mmHg 80%
    06:00 +6°C° 0.4 mm 2 m/S 656 mmHg 80%
    07:00 +6°C° 0.3 mm 2 m/S 657 mmHg 80%
    08:00 +7°C° 0.3 mm 2 m/S 657 mmHg 79%
    09:00 +8°C° 0.3 mm 2 m/S 657 mmHg 78%
    10:00 +8°C° 0.2 mm 2 m/S 657 mmHg 77%
    11:00 +9°C° 0.2 mm 2 m/S 657 mmHg 75%
    12:00 +9°C° 0.2 mm 2 m/S 657 mmHg 74%
    13:00 +10°C° 0.1 mm 2 m/S 657 mmHg 73%
    14:00 +10°C° 0.1 mm 2 m/S 657 mmHg 72%
    15:00 +10°C° 0.1 mm 2 m/S 658 mmHg 71%
    16:00 +9°C° 0.1 mm 2 m/S 658 mmHg 72%
    17:00 +8°C° 0.1 mm 2 m/S 658 mmHg 73%
    18:00 +8°C° 0.1 mm 2 m/S 658 mmHg 75%
    19:00 +7°C° 0.1 mm 2 m/S 658 mmHg 75%
    20:00 +7°C° 0.1 mm 2 m/S 658 mmHg 75%
    21:00 +7°C° 0.1 mm 2 m/S 658 mmHg 76%
    22:00 +7°C° 0.1 mm 2 m/S 658 mmHg 76%
    23:00 +7°C° 0.1 mm 2 m/S 658 mmHg 76%

    übermorgen, 17 November, Samstag

    Zeit Temperatur Niederschläge Wind Luftdruck Luftfeuchtigkeit
    00:00 +6°C° 0.1 mm 2 m/S 658 mmHg 76%
    01:00 +6°C° 0.1 mm 2 m/S 658 mmHg 77%
    02:00 +7°C° 0.1 mm 2 m/S 658 mmHg 78%
    03:00 +7°C° 0.1 mm 2 m/S 659 mmHg 79%
    04:00 +7°C° 0.2 mm 2 m/S 659 mmHg 80%
    05:00 +6°C° 0.2 mm 2 m/S 659 mmHg 81%
    06:00 +6°C° 0.2 mm 2 m/S 659 mmHg 82%
    07:00 +7°C° 0.1 mm 2 m/S 659 mmHg 80%
    08:00 +7°C° 0.1 mm 2 m/S 660 mmHg 78%
    09:00 +8°C° 0.1 mm 2 m/S 660 mmHg 75%
    10:00 +8°C° 0 mm 2 m/S 660 mmHg 73%
    11:00 +9°C° 0 mm 2 m/S 660 mmHg 70%
    12:00 +10°C° 0 mm 2 m/S 659 mmHg 68%
    13:00 +10°C° 0.1 mm 2 m/S 659 mmHg 66%
    14:00 +10°C° 0.1 mm 2 m/S 659 mmHg 65%
    15:00 +10°C° 0.1 mm 2 m/S 659 mmHg 64%
    16:00 +9°C° 0.1 mm 2 m/S 659 mmHg 65%
    17:00 +8°C° 0.1 mm 2 m/S 659 mmHg 67%
    18:00 +7°C° 0.1 mm 2 m/S 659 mmHg 69%
    19:00 +7°C° 0.2 mm 2 m/S 659 mmHg 69%
    20:00 +7°C° 0.2 mm 2 m/S 659 mmHg 70%
    21:00 +6°C° 0.2 mm 2 m/S 659 mmHg 71%
    22:00 +6°C° 0.3 mm 2 m/S 659 mmHg 71%
    23:00 +6°C° 0.3 mm 2 m/S 658 mmHg 72%

    18 November, Sonntag

    Zeit Temperatur Niederschläge Wind Luftdruck Luftfeuchtigkeit
    00:00 +6°C° 0.3 mm 2 m/S 658 mmHg 73%
    01:00 +6°C° 0.3 mm 2 m/S 658 mmHg 74%
    02:00 +7°C° 0.3 mm 1 m/S 658 mmHg 75%
    03:00 +6°C° 0.3 mm 1 m/S 658 mmHg 76%
    04:00 +6°C° 0.2 mm 1 m/S 658 mmHg 77%
    05:00 +6°C° 0.2 mm 1 m/S 658 mmHg 78%
    06:00 +5°C° 0.2 mm 1 m/S 658 mmHg 79%
    07:00 +6°C° 0.1 mm 1 m/S 659 mmHg 76%
    08:00 +6°C° 0.1 mm 1 m/S 659 mmHg 73%
    09:00 +6°C° 0.1 mm 2 m/S 659 mmHg 70%
    10:00 +6°C° 0 mm 2 m/S 659 mmHg 68%
    11:00 +7°C° 0 mm 2 m/S 659 mmHg 65%
    12:00 +7°C° 0 mm 2 m/S 659 mmHg 63%
    13:00 +7°C° 0 mm 2 m/S 658 mmHg 61%
    14:00 +7°C° 0 mm 2 m/S 658 mmHg 59%
    15:00 +7°C° 0 mm 2 m/S 658 mmHg 58%
    16:00 +6°C° 0 mm 2 m/S 658 mmHg 59%
    17:00 +5°C° 0 mm 2 m/S 658 mmHg 61%
    18:00 +5°C° 0 mm 1 m/S 658 mmHg 63%
    19:00 +5°C° 0 mm 1 m/S 658 mmHg 63%
    20:00 +5°C° 0 mm 1 m/S 658 mmHg 63%
    21:00 +5°C° 0 mm 1 m/S 658 mmHg 62%
    22:00 +4°C° 0 mm 1 m/S 658 mmHg 63%
    23:00 +4°C° 0 mm 1 m/S 658 mmHg 64%

    19 November, Montag

    Zeit Temperatur Niederschläge Wind Luftdruck Luftfeuchtigkeit
    00:00 +4°C° 0 mm 1 m/S 658 mmHg 64%
    01:00 +4°C° 0 mm 1 m/S 658 mmHg 65%
    02:00 +4°C° 0 mm 1 m/S 658 mmHg 65%
    03:00 +3°C° 0 mm 1 m/S 658 mmHg 66%
    04:00 +3°C° 0 mm 1 m/S 658 mmHg 66%
    05:00 +3°C° 0 mm 1 m/S 658 mmHg 67%
    06:00 +3°C° 0 mm 1 m/S 658 mmHg 68%
    07:00 +4°C° 0 mm 1 m/S 659 mmHg 66%
    08:00 +4°C° 0 mm 2 m/S 659 mmHg 64%
    09:00 +5°C° 0 mm 2 m/S 659 mmHg 63%
    10:00 +6°C° 0 mm 2 m/S 659 mmHg 61%
    11:00 +7°C° 0 mm 2 m/S 659 mmHg 60%
    12:00 +8°C° 0 mm 2 m/S 659 mmHg 59%
    13:00 +8°C° 0 mm 2 m/S 659 mmHg 58%
    14:00 +9°C° 0 mm 2 m/S 658 mmHg 57%
    15:00 +9°C° 0 mm 2 m/S 658 mmHg 57%
    16:00 +7°C° 0 mm 2 m/S 658 mmHg 58%
    17:00 +6°C° 0 mm 2 m/S 658 mmHg 60%
    18:00 +5°C° 0 mm 2 m/S 659 mmHg 62%
    19:00 +5°C° 0 mm 2 m/S 659 mmHg 63%
    20:00 +6°C° 0 mm 1 m/S 659 mmHg 64%
    21:00 +6°C° 0 mm 1 m/S 659 mmHg 65%
    22:00 +5°C° 0 mm 1 m/S 659 mmHg 66%
    23:00 +5°C° 0 mm 1 m/S 659 mmHg 67%

    20 November, Dienstag

    Zeit Temperatur Niederschläge Wind Luftdruck Luftfeuchtigkeit
    00:00 +5°C° 0 mm 1 m/S 659 mmHg 68%
    01:00 +5°C° 0 mm 1 m/S 659 mmHg 69%
    02:00 +5°C° 0 mm 1 m/S 659 mmHg 70%
    03:00 +5°C° 0 mm 1 m/S 659 mmHg 71%
    04:00 +5°C° 0 mm 1 m/S 659 mmHg 71%
    05:00 +5°C° 0 mm 1 m/S 659 mmHg 71%
    06:00 +4°C° 0 mm 1 m/S 659 mmHg 71%
    07:00 +6°C° 0 mm 1 m/S 659 mmHg 68%
    08:00 +6°C° 0 mm 2 m/S 659 mmHg 65%
    09:00 +7°C° 0 mm 2 m/S 660 mmHg 63%
    10:00 +8°C° 0 mm 2 m/S 659 mmHg 62%
    11:00 +9°C° 0 mm 2 m/S 659 mmHg 62%
    12:00 +9°C° 0 mm 2 m/S 659 mmHg 61%
    13:00 +9°C° 0.1 mm 2 m/S 659 mmHg 61%
    14:00 +9°C° 0.1 mm 2 m/S 658 mmHg 61%
    15:00 +10°C° 0.1 mm 2 m/S 658 mmHg 61%
    16:00 +9°C° 0 mm 1 m/S 658 mmHg 63%
    17:00 +8°C° 0 mm 1 m/S 658 mmHg 65%
    18:00 +7°C° 0 mm 1 m/S 658 mmHg 68%
    19:00 +7°C° 0 mm 1 m/S 658 mmHg 68%
    20:00 +7°C° 0 mm 1 m/S 658 mmHg 69%
    21:00 +6°C° 0 mm 1 m/S 658 mmHg 69%
    22:00 +6°C° 0 mm 1 m/S 658 mmHg 70%
    23:00 +6°C° 0 mm 1 m/S 658 mmHg 71%
    Mehr zeigen